Location: Mount Lemmon
(32.4432°N, 110.7577°W)
Time: 14:35:14
(UTC-07:00)

Envisat - Visible Passes

Search period start: 19 June 2018 00:00
Search period end: 29 June 2018 00:00
Orbit: 764 x 766 km, 98.2° (Epoch: 19 June)

Date Brightness Start Highest point End Pass type
(mag) Time Alt. Az. Time Alt. Az. Time Alt. Az.
19 Jun 5.0 20:36:22 10° SSW 20:40:31 26° W 20:44:42 10° NW visible
20 Jun 3.5 19:58:41 10° S 20:03:41 63° W 20:08:43 10° NNW visible
21 Jun 5.7 21:03:50 10° WSW 21:06:17 13° W 21:08:43 10° WNW visible
22 Jun 4.6 20:24:47 10° SSW 20:29:19 33° W 20:33:52 10° NNW visible
24 Jun 5.5 20:51:40 10° SW 20:55:01 18° W 20:58:24 10° NW visible
25 Jun 4.2 20:13:20 10° S 20:18:06 43° W 20:22:56 10° NNW visible
27 Jun 5.2 20:39:49 10° SSW 20:43:48 23° W 20:47:47 10° NW visible
28 Jun 3.7 20:01:59 10° S 20:06:56 57° W 20:11:56 10° NNW visible
